Location: Huberhof
(49.2050°N, 7.4980°E)
Time: 01:25:23
(UTC+00:00)

Cosmos 1939 Rocket - Pass Details

Date: 29 October 2020
Orbit: 532 x 584 km, 97.4° (Epoch: 26 November)

Event Time Altitude Azimuth Distance (km) Brightness Sun altitude
Rises 16:55:34 0° 145° (SE) 2,724 6.1 -7.5°
Reaches altitude 10° 16:57:48 10° 137° (SE) 1,825 5.2 -7.8°
Maximum altitude 17:01:27 38° 70° (ENE) 853 3.3 -8.4°
Drops below altitude 10° 17:05:05 10° 2° (N) 1,814 5.3 -9.0°
Sets 17:07:17 0° 354° (N) 2,705 6.3 -9.3°
